#datetime,building,power
2022-08-03T00:00:00,rvs,13.44
2022-08-03T00:01:00,rvs,12.85
2022-08-03T00:02:00,rvs,12.96
2022-08-03T00:03:00,rvs,13.29
2022-08-03T00:04:00,rvs,13.28
2022-08-03T00:05:00,rvs,12.94
2022-08-03T00:06:00,rvs,17.50
2022-08-03T00:07:00,rvs,17.85
2022-08-03T00:08:00,rvs,27.22
2022-08-03T00:09:00,rvs,26.52
2022-08-03T00:10:00,rvs,25.76
2022-08-03T00:11:00,rvs,25.69
2022-08-03T00:12:00,rvs,24.29
2022-08-03T00:13:00,rvs,28.81
2022-08-03T00:14:00,rvs,27.48
2022-08-03T00:15:00,rvs,31.66
2022-08-03T00:16:00,rvs,33.93
2022-08-03T00:17:00,rvs,30.69
2022-08-03T00:18:00,rvs,35.87
2022-08-03T00:19:00,rvs,32.82
2022-08-03T00:20:00,rvs,34.37
2022-08-03T00:21:00,rvs,34.53
2022-08-03T00:22:00,rvs,34.90
2022-08-03T00:23:00,rvs,38.27
2022-08-03T00:24:00,rvs,30.39
2022-08-03T00:25:00,rvs,33.87
2022-08-03T00:26:00,rvs,36.92
2022-08-03T00:27:00,rvs,28.20
2022-08-03T00:28:00,rvs,31.30
2022-08-03T00:29:00,rvs,32.26
2022-08-03T00:30:00,rvs,26.70
2022-08-03T00:31:00,rvs,29.76
2022-08-03T00:32:00,rvs,29.23
2022-08-03T00:33:00,rvs,29.71
2022-08-03T00:34:00,rvs,33.95
2022-08-03T00:35:00,rvs,25.91
2022-08-03T00:36:00,rvs,26.21
2022-08-03T00:37:00,rvs,23.21
2022-08-03T00:38:00,rvs,24.80
2022-08-03T00:39:00,rvs,29.02
2022-08-03T00:40:00,rvs,21.86
2022-08-03T00:41:00,rvs,26.11
2022-08-03T00:42:00,rvs,28.38
2022-08-03T00:43:00,rvs,20.60
2022-08-03T00:44:00,rvs,23.44
2022-08-03T00:45:00,rvs,22.03
2022-08-03T00:46:00,rvs,18.26
2022-08-03T00:47:00,rvs,22.04
2022-08-03T00:48:00,rvs,24.42
2022-08-03T00:49:00,rvs,21.13
2022-08-03T00:50:00,rvs,32.28
2022-08-03T00:51:00,rvs,28.78
2022-08-03T00:52:00,rvs,25.55
2022-08-03T00:53:00,rvs,25.00
2022-08-03T00:54:00,rvs,30.05
2022-08-03T00:55:00,rvs,26.05
2022-08-03T00:56:00,rvs,21.91
2022-08-03T00:57:00,rvs,30.08
2022-08-03T00:58:00,rvs,26.32
2022-08-03T00:59:00,rvs,21.62
2022-08-03T01:00:00,rvs,29.41
2022-08-03T01:01:00,rvs,25.14
2022-08-03T01:02:00,rvs,22.00
2022-08-03T01:03:00,rvs,30.42
2022-08-03T01:04:00,rvs,18.10
2022-08-03T01:05:00,rvs,18.02
2022-08-03T01:06:00,rvs,17.54
2022-08-03T01:07:00,rvs,17.61
2022-08-03T01:08:00,rvs,16.68
2022-08-03T01:09:00,rvs,17.03
2022-08-03T01:10:00,rvs,17.42
2022-08-03T01:11:00,rvs,12.88
2022-08-03T01:12:00,rvs,12.79
2022-08-03T01:13:00,rvs,12.75
2022-08-03T01:14:00,rvs,14.76
2022-08-03T01:15:00,rvs,17.36
2022-08-03T01:16:00,rvs,20.37
2022-08-03T01:17:00,rvs,20.38
2022-08-03T01:18:00,rvs,34.62
2022-08-03T01:19:00,rvs,34.32
2022-08-03T01:20:00,rvs,35.06
2022-08-03T01:21:00,rvs,32.78
2022-08-03T01:22:00,rvs,19.97
2022-08-03T01:23:00,rvs,19.70
2022-08-03T01:24:00,rvs,19.45
2022-08-03T01:25:00,rvs,19.47
2022-08-03T01:26:00,rvs,19.80
2022-08-03T01:27:00,rvs,22.37
2022-08-03T01:28:00,rvs,22.50
2022-08-03T01:29:00,rvs,22.75
2022-08-03T01:30:00,rvs,23.38
2022-08-03T01:31:00,rvs,23.72
2022-08-03T01:32:00,rvs,24.79
2022-08-03T01:33:00,rvs,24.42
2022-08-03T01:34:00,rvs,23.46
2022-08-03T01:35:00,rvs,23.82
2022-08-03T01:36:00,rvs,24.10
2022-08-03T01:37:00,rvs,23.42
2022-08-03T01:38:00,rvs,22.99
2022-08-03T01:39:00,rvs,23.12
2022-08-03T01:40:00,rvs,19.11
2022-08-03T01:41:00,rvs,19.18
2022-08-03T01:42:00,rvs,19.14
2022-08-03T01:43:00,rvs,18.86
2022-08-03T01:44:00,rvs,18.84
2022-08-03T01:45:00,rvs,19.04
2022-08-03T01:46:00,rvs,16.65
2022-08-03T01:47:00,rvs,18.83
2022-08-03T01:48:00,rvs,19.07
2022-08-03T01:49:00,rvs,16.28
2022-08-03T01:50:00,rvs,21.36
2022-08-03T01:51:00,rvs,19.87
2022-08-03T01:52:00,rvs,20.23
2022-08-03T01:53:00,rvs,16.18
2022-08-03T01:54:00,rvs,21.03
2022-08-03T01:55:00,rvs,20.81
2022-08-03T01:56:00,rvs,16.73
2022-08-03T01:57:00,rvs,16.23
2022-08-03T01:58:00,rvs,20.06
2022-08-03T01:59:00,rvs,19.82
2022-08-03T02:00:00,rvs,15.79
2022-08-03T02:01:00,rvs,20.24
2022-08-03T02:02:00,rvs,20.50
2022-08-03T02:03:00,rvs,12.19
2022-08-03T02:04:00,rvs,12.81
2022-08-03T02:05:00,rvs,18.34
2022-08-03T02:06:00,rvs,18.33
2022-08-03T02:07:00,rvs,14.83
2022-08-03T02:08:00,rvs,19.32
2022-08-03T02:09:00,rvs,15.66
2022-08-03T02:10:00,rvs,16.00
2022-08-03T02:11:00,rvs,16.77
2022-08-03T02:12:00,rvs,16.58
2022-08-03T02:13:00,rvs,12.55
2022-08-03T02:14:00,rvs,18.79
2022-08-03T02:15:00,rvs,19.09
2022-08-03T02:16:00,rvs,15.19
2022-08-03T02:17:00,rvs,15.77
2022-08-03T02:18:00,rvs,20.13
2022-08-03T02:19:00,rvs,16.99
2022-08-03T02:20:00,rvs,16.54
2022-08-03T02:21:00,rvs,16.42
2022-08-03T02:22:00,rvs,16.32
2022-08-03T02:23:00,rvs,16.92
2022-08-03T02:24:00,rvs,16.73
2022-08-03T02:25:00,rvs,16.56
2022-08-03T02:26:00,rvs,16.32
2022-08-03T02:27:00,rvs,16.19
2022-08-03T02:28:00,rvs,16.75
2022-08-03T02:29:00,rvs,16.85
2022-08-03T02:30:00,rvs,17.04
2022-08-03T02:31:00,rvs,16.85
2022-08-03T02:32:00,rvs,16.88
2022-08-03T02:33:00,rvs,12.90
2022-08-03T02:34:00,rvs,15.10
2022-08-03T02:35:00,rvs,17.56
2022-08-03T02:36:00,rvs,17.08
2022-08-03T02:37:00,rvs,17.52
2022-08-03T02:38:00,rvs,17.86
2022-08-03T02:39:00,rvs,21.35
2022-08-03T02:40:00,rvs,22.50
2022-08-03T02:41:00,rvs,22.09
2022-08-03T02:42:00,rvs,21.69
2022-08-03T02:43:00,rvs,22.39
2022-08-03T02:44:00,rvs,21.94
2022-08-03T02:45:00,rvs,18.77
2022-08-03T02:46:00,rvs,20.62
2022-08-03T02:47:00,rvs,21.74
2022-08-03T02:48:00,rvs,22.00
2022-08-03T02:49:00,rvs,21.39
2022-08-03T02:50:00,rvs,21.87
2022-08-03T02:51:00,rvs,22.52
2022-08-03T02:52:00,rvs,23.24
2022-08-03T02:53:00,rvs,23.51
2022-08-03T02:54:00,rvs,24.98
2022-08-03T02:55:00,rvs,25.14
2022-08-03T02:56:00,rvs,20.26
2022-08-03T02:57:00,rvs,15.40
2022-08-03T02:58:00,rvs,15.59
2022-08-03T02:59:00,rvs,15.61
2022-08-03T03:00:00,rvs,15.61
2022-08-03T03:01:00,rvs,17.42
2022-08-03T03:02:00,rvs,17.66
2022-08-03T03:03:00,rvs,17.87
2022-08-03T03:04:00,rvs,17.45
2022-08-03T03:05:00,rvs,18.15
2022-08-03T03:06:00,rvs,19.10
2022-08-03T03:07:00,rvs,18.90
2022-08-03T03:08:00,rvs,23.66
2022-08-03T03:09:00,rvs,23.65
2022-08-03T03:10:00,rvs,19.09
2022-08-03T03:11:00,rvs,19.92
2022-08-03T03:12:00,rvs,18.91
2022-08-03T03:13:00,rvs,20.03
2022-08-03T03:14:00,rvs,20.09
2022-08-03T03:15:00,rvs,20.15
2022-08-03T03:16:00,rvs,19.84
2022-08-03T03:17:00,rvs,20.00
2022-08-03T03:18:00,rvs,19.82
2022-08-03T03:19:00,rvs,19.97
2022-08-03T03:20:00,rvs,20.47
2022-08-03T03:21:00,rvs,22.57
2022-08-03T03:22:00,rvs,23.79
2022-08-03T03:23:00,rvs,24.10
2022-08-03T03:24:00,rvs,24.33
2022-08-03T03:25:00,rvs,25.10
2022-08-03T03:26:00,rvs,27.01
2022-08-03T03:27:00,rvs,28.77
2022-08-03T03:28:00,rvs,30.02
2022-08-03T03:29:00,rvs,25.83
2022-08-03T03:30:00,rvs,25.04
2022-08-03T03:31:00,rvs,24.97
2022-08-03T03:32:00,rvs,25.45
2022-08-03T03:33:00,rvs,22.08
2022-08-03T03:34:00,rvs,21.60
2022-08-03T03:35:00,rvs,21.05
2022-08-03T03:36:00,rvs,16.75
2022-08-03T03:37:00,rvs,16.78
2022-08-03T03:38:00,rvs,12.27
2022-08-03T03:39:00,rvs,12.21
2022-08-03T03:40:00,rvs,11.74
2022-08-03T03:41:00,rvs,11.76
2022-08-03T03:42:00,rvs,11.28
2022-08-03T03:43:00,rvs,11.31
2022-08-03T03:44:00,rvs,11.25
2022-08-03T03:45:00,rvs,11.23
2022-08-03T03:46:00,rvs,11.18
2022-08-03T03:47:00,rvs,11.25
2022-08-03T03:48:00,rvs,11.24
2022-08-03T03:49:00,rvs,11.20
2022-08-03T03:50:00,rvs,11.19
2022-08-03T03:51:00,rvs,11.13
2022-08-03T03:52:00,rvs,11.20
2022-08-03T03:53:00,rvs,11.13
2022-08-03T03:54:00,rvs,11.25
2022-08-03T03:55:00,rvs,11.25
2022-08-03T03:56:00,rvs,11.22
2022-08-03T03:57:00,rvs,11.20
2022-08-03T03:58:00,rvs,11.27
2022-08-03T03:59:00,rvs,11.14
2022-08-03T04:00:00,rvs,11.15
2022-08-03T04:01:00,rvs,11.12
2022-08-03T04:02:00,rvs,11.21
2022-08-03T04:03:00,rvs,11.27
2022-08-03T04:04:00,rvs,11.22
2022-08-03T04:05:00,rvs,11.26
2022-08-03T04:06:00,rvs,11.20
2022-08-03T04:07:00,rvs,11.16
2022-08-03T04:08:00,rvs,11.11
2022-08-03T04:09:00,rvs,11.34
2022-08-03T04:10:00,rvs,11.27
2022-08-03T04:11:00,rvs,11.31
2022-08-03T04:12:00,rvs,11.20
2022-08-03T04:13:00,rvs,11.26
2022-08-03T04:14:00,rvs,11.23
2022-08-03T04:15:00,rvs,11.63
2022-08-03T04:16:00,rvs,11.67
2022-08-03T04:17:00,rvs,11.92
2022-08-03T04:18:00,rvs,12.13
2022-08-03T04:19:00,rvs,12.18
2022-08-03T04:20:00,rvs,11.61
2022-08-03T04:21:00,rvs,11.64
2022-08-03T04:22:00,rvs,11.68
2022-08-03T04:23:00,rvs,11.62
2022-08-03T04:24:00,rvs,11.60
2022-08-03T04:25:00,rvs,11.63
2022-08-03T04:26:00,rvs,11.68
2022-08-03T04:27:00,rvs,13.39
2022-08-03T04:28:00,rvs,14.52
2022-08-03T04:29:00,rvs,16.55
2022-08-03T04:30:00,rvs,17.33
2022-08-03T04:31:00,rvs,18.22
2022-08-03T04:32:00,rvs,18.86
2022-08-03T04:33:00,rvs,19.56
2022-08-03T04:34:00,rvs,19.43
2022-08-03T04:35:00,rvs,19.33
2022-08-03T04:36:00,rvs,19.63
2022-08-03T04:37:00,rvs,20.57
2022-08-03T04:38:00,rvs,20.62
2022-08-03T04:39:00,rvs,19.43
2022-08-03T04:40:00,rvs,19.23
2022-08-03T04:41:00,rvs,21.70
2022-08-03T04:42:00,rvs,22.09
2022-08-03T04:43:00,rvs,22.28
2022-08-03T04:44:00,rvs,22.39
2022-08-03T04:45:00,rvs,37.21
2022-08-03T04:46:00,rvs,33.12
2022-08-03T04:47:00,rvs,34.04
2022-08-03T04:48:00,rvs,34.62
2022-08-03T04:49:00,rvs,33.76
2022-08-03T04:50:00,rvs,20.33
2022-08-03T04:51:00,rvs,20.70
2022-08-03T04:52:00,rvs,20.06
2022-08-03T04:53:00,rvs,19.84
2022-08-03T04:54:00,rvs,20.12
2022-08-03T04:55:00,rvs,19.99
2022-08-03T04:56:00,rvs,20.04
2022-08-03T04:57:00,rvs,20.09
2022-08-03T04:58:00,rvs,19.93
2022-08-03T04:59:00,rvs,14.73
2022-08-03T05:00:00,rvs,15.08
2022-08-03T05:01:00,rvs,17.05
2022-08-03T05:02:00,rvs,17.50
2022-08-03T05:03:00,rvs,17.23
2022-08-03T05:04:00,rvs,18.58
2022-08-03T05:05:00,rvs,16.44
2022-08-03T05:06:00,rvs,16.95
2022-08-03T05:07:00,rvs,15.26
2022-08-03T05:08:00,rvs,15.30
2022-08-03T05:09:00,rvs,16.32
2022-08-03T05:10:00,rvs,15.97
2022-08-03T05:11:00,rvs,16.02
2022-08-03T05:12:00,rvs,16.26
2022-08-03T05:13:00,rvs,11.92
2022-08-03T05:14:00,rvs,11.98
2022-08-03T05:15:00,rvs,12.05
2022-08-03T05:16:00,rvs,13.74
2022-08-03T05:17:00,rvs,13.70
2022-08-03T05:18:00,rvs,13.82
2022-08-03T05:19:00,rvs,14.02
2022-08-03T05:20:00,rvs,14.36
2022-08-03T05:21:00,rvs,15.12
2022-08-03T05:22:00,rvs,15.73
2022-08-03T05:23:00,rvs,16.38
2022-08-03T05:24:00,rvs,18.18
2022-08-03T05:25:00,rvs,18.25
2022-08-03T05:26:00,rvs,14.24
2022-08-03T05:27:00,rvs,14.22
2022-08-03T05:28:00,rvs,15.58
2022-08-03T05:29:00,rvs,15.69
2022-08-03T05:30:00,rvs,15.62
2022-08-03T05:31:00,rvs,15.43
2022-08-03T05:32:00,rvs,16.13
2022-08-03T05:33:00,rvs,16.15
2022-08-03T05:34:00,rvs,16.12
2022-08-03T05:35:00,rvs,16.25
2022-08-03T05:36:00,rvs,16.27
2022-08-03T05:37:00,rvs,15.82
2022-08-03T05:38:00,rvs,15.53
2022-08-03T05:39:00,rvs,14.94
2022-08-03T05:40:00,rvs,16.71
2022-08-03T05:41:00,rvs,17.01
2022-08-03T05:42:00,rvs,15.90
2022-08-03T05:43:00,rvs,16.37
2022-08-03T05:44:00,rvs,17.44
2022-08-03T05:45:00,rvs,17.23
2022-08-03T05:46:00,rvs,17.61
2022-08-03T05:47:00,rvs,17.75
2022-08-03T05:48:00,rvs,17.87
2022-08-03T05:49:00,rvs,17.89
2022-08-03T05:50:00,rvs,14.00
2022-08-03T05:51:00,rvs,13.48
2022-08-03T05:52:00,rvs,13.50
2022-08-03T05:53:00,rvs,13.01
2022-08-03T05:54:00,rvs,11.09
2022-08-03T05:55:00,rvs,11.19
2022-08-03T05:56:00,rvs,11.19
2022-08-03T05:57:00,rvs,11.27
2022-08-03T05:58:00,rvs,11.28
2022-08-03T05:59:00,rvs,11.27
2022-08-03T06:00:00,rvs,11.31
2022-08-03T06:01:00,rvs,11.22
2022-08-03T06:02:00,rvs,11.63
2022-08-03T06:03:00,rvs,12.25
2022-08-03T06:04:00,rvs,12.20
2022-08-03T06:05:00,rvs,13.01
2022-08-03T06:06:00,rvs,14.23
2022-08-03T06:07:00,rvs,13.85
2022-08-03T06:08:00,rvs,13.44
2022-08-03T06:09:00,rvs,13.12
2022-08-03T06:10:00,rvs,13.10
2022-08-03T06:11:00,rvs,13.33
2022-08-03T06:12:00,rvs,13.22
2022-08-03T06:13:00,rvs,13.26
2022-08-03T06:14:00,rvs,13.30
2022-08-03T06:15:00,rvs,13.40
2022-08-03T06:16:00,rvs,13.39
2022-08-03T06:17:00,rvs,13.34
2022-08-03T06:18:00,rvs,13.29
2022-08-03T06:19:00,rvs,13.34
2022-08-03T06:20:00,rvs,12.22
2022-08-03T06:21:00,rvs,11.95
2022-08-03T06:22:00,rvs,11.82
2022-08-03T06:23:00,rvs,11.88
2022-08-03T06:24:00,rvs,12.21
2022-08-03T06:25:00,rvs,13.82
2022-08-03T06:26:00,rvs,14.04
2022-08-03T06:27:00,rvs,13.86
2022-08-03T06:28:00,rvs,14.24
2022-08-03T06:29:00,rvs,14.49
2022-08-03T06:30:00,rvs,11.71
2022-08-03T06:31:00,rvs,11.12
2022-08-03T06:32:00,rvs,11.03
2022-08-03T06:33:00,rvs,10.98
2022-08-03T06:34:00,rvs,11.09
2022-08-03T06:35:00,rvs,10.98
2022-08-03T06:36:00,rvs,11.00
2022-08-03T06:37:00,rvs,11.02
2022-08-03T06:38:00,rvs,11.58
2022-08-03T06:39:00,rvs,11.55
2022-08-03T06:40:00,rvs,11.60
2022-08-03T06:41:00,rvs,11.68
2022-08-03T06:42:00,rvs,11.88
2022-08-03T06:43:00,rvs,11.72
2022-08-03T06:44:00,rvs,11.78
2022-08-03T06:45:00,rvs,12.03
2022-08-03T06:46:00,rvs,11.26
2022-08-03T06:47:00,rvs,11.29
2022-08-03T06:48:00,rvs,11.79
2022-08-03T06:49:00,rvs,11.85
2022-08-03T06:50:00,rvs,11.78
2022-08-03T06:51:00,rvs,11.99
2022-08-03T06:52:00,rvs,12.27
2022-08-03T06:53:00,rvs,13.71
2022-08-03T06:54:00,rvs,14.95
2022-08-03T06:55:00,rvs,16.86
2022-08-03T06:56:00,rvs,17.12
2022-08-03T06:57:00,rvs,17.53
2022-08-03T06:58:00,rvs,17.95
2022-08-03T06:59:00,rvs,19.11
2022-08-03T07:00:00,rvs,19.93
2022-08-03T07:01:00,rvs,20.49
2022-08-03T07:02:00,rvs,20.31
2022-08-03T07:03:00,rvs,19.88
2022-08-03T07:04:00,rvs,20.39
2022-08-03T07:05:00,rvs,12.95
2022-08-03T07:06:00,rvs,13.02
2022-08-03T07:07:00,rvs,12.90
2022-08-03T07:08:00,rvs,12.51
2022-08-03T07:09:00,rvs,12.50
2022-08-03T07:10:00,rvs,12.52
2022-08-03T07:11:00,rvs,12.49
2022-08-03T07:12:00,rvs,12.47
2022-08-03T07:13:00,rvs,12.18
2022-08-03T07:14:00,rvs,12.11
2022-08-03T07:15:00,rvs,12.25
2022-08-03T07:16:00,rvs,12.26
2022-08-03T07:17:00,rvs,12.30
2022-08-03T07:18:00,rvs,13.77
2022-08-03T07:19:00,rvs,14.33
2022-08-03T07:20:00,rvs,15.92
2022-08-03T07:21:00,rvs,19.46
2022-08-03T07:22:00,rvs,19.54
2022-08-03T07:23:00,rvs,19.62
2022-08-03T07:24:00,rvs,19.87
2022-08-03T07:25:00,rvs,20.70
2022-08-03T07:26:00,rvs,20.31
2022-08-03T07:27:00,rvs,20.21
2022-08-03T07:28:00,rvs,20.62
2022-08-03T07:29:00,rvs,19.51
2022-08-03T07:30:00,rvs,19.94
2022-08-03T07:31:00,rvs,16.45
2022-08-03T07:32:00,rvs,16.54
2022-08-03T07:33:00,rvs,15.98
2022-08-03T07:34:00,rvs,15.77
2022-08-03T07:35:00,rvs,15.73
2022-08-03T07:36:00,rvs,16.02
2022-08-03T07:37:00,rvs,17.54
2022-08-03T07:38:00,rvs,20.06
2022-08-03T07:39:00,rvs,20.05
2022-08-03T07:40:00,rvs,19.27
2022-08-03T07:41:00,rvs,21.79
2022-08-03T07:42:00,rvs,21.62
2022-08-03T07:43:00,rvs,21.40
2022-08-03T07:44:00,rvs,22.13
2022-08-03T07:45:00,rvs,23.47
2022-08-03T07:46:00,rvs,24.96
2022-08-03T07:47:00,rvs,30.68
2022-08-03T07:48:00,rvs,31.56
2022-08-03T07:49:00,rvs,28.21
2022-08-03T07:50:00,rvs,30.28
2022-08-03T07:51:00,rvs,30.59
2022-08-03T07:52:00,rvs,30.35
2022-08-03T07:53:00,rvs,30.45
2022-08-03T07:54:00,rvs,30.90
2022-08-03T07:55:00,rvs,31.77
2022-08-03T07:56:00,rvs,32.41
2022-08-03T07:57:00,rvs,44.97
2022-08-03T07:58:00,rvs,39.77
2022-08-03T07:59:00,rvs,41.93
2022-08-03T08:00:00,rvs,41.47
2022-08-03T08:01:00,rvs,26.30
2022-08-03T08:02:00,rvs,27.25
2022-08-03T08:03:00,rvs,27.31
2022-08-03T08:04:00,rvs,23.17
2022-08-03T08:05:00,rvs,23.71
2022-08-03T08:06:00,rvs,26.53
2022-08-03T08:07:00,rvs,27.02
2022-08-03T08:08:00,rvs,27.05
2022-08-03T08:09:00,rvs,26.78
2022-08-03T08:10:00,rvs,26.73
2022-08-03T08:11:00,rvs,28.04
2022-08-03T08:12:00,rvs,28.59
2022-08-03T08:13:00,rvs,27.16
2022-08-03T08:14:00,rvs,22.30
2022-08-03T08:15:00,rvs,18.31
2022-08-03T08:16:00,rvs,17.76
2022-08-03T08:17:00,rvs,20.78
2022-08-03T08:18:00,rvs,22.16
2022-08-03T08:19:00,rvs,19.80
2022-08-03T08:20:00,rvs,22.52
2022-08-03T08:21:00,rvs,35.82
2022-08-03T08:22:00,rvs,14.01
2022-08-03T08:23:00,rvs,15.99
2022-08-03T08:24:00,rvs,20.12
2022-08-03T08:25:00,rvs,16.77
2022-08-03T08:26:00,rvs,17.99
2022-08-03T08:27:00,rvs,18.10
2022-08-03T08:28:00,rvs,22.90
2022-08-03T08:29:00,rvs,25.69
2022-08-03T08:30:00,rvs,23.25
2022-08-03T08:31:00,rvs,25.56
2022-08-03T08:32:00,rvs,28.43
2022-08-03T08:33:00,rvs,24.00
2022-08-03T08:34:00,rvs,23.96
2022-08-03T08:35:00,rvs,28.27
2022-08-03T08:36:00,rvs,24.98
2022-08-03T08:37:00,rvs,27.30
2022-08-03T08:38:00,rvs,31.68
2022-08-03T08:39:00,rvs,24.13
2022-08-03T08:40:00,rvs,23.19
2022-08-03T08:41:00,rvs,23.47
2022-08-03T08:42:00,rvs,27.53
2022-08-03T08:43:00,rvs,27.13
2022-08-03T08:44:00,rvs,25.35
2022-08-03T08:45:00,rvs,25.59
2022-08-03T08:46:00,rvs,25.91
2022-08-03T08:47:00,rvs,26.91
2022-08-03T08:48:00,rvs,20.10
2022-08-03T08:49:00,rvs,19.45
2022-08-03T08:50:00,rvs,35.71
2022-08-03T08:51:00,rvs,16.29
2022-08-03T08:52:00,rvs,16.35
2022-08-03T08:53:00,rvs,16.43
2022-08-03T08:54:00,rvs,16.78
2022-08-03T08:55:00,rvs,16.80
2022-08-03T08:56:00,rvs,16.63
2022-08-03T08:57:00,rvs,16.44
2022-08-03T08:58:00,rvs,15.55
2022-08-03T08:59:00,rvs,12.01
2022-08-03T09:00:00,rvs,11.89
2022-08-03T09:01:00,rvs,11.92
2022-08-03T09:02:00,rvs,12.23
2022-08-03T09:03:00,rvs,12.14
2022-08-03T09:04:00,rvs,12.05
2022-08-03T09:05:00,rvs,12.07
2022-08-03T09:06:00,rvs,12.09
2022-08-03T09:07:00,rvs,12.08
2022-08-03T09:08:00,rvs,11.94
2022-08-03T09:09:00,rvs,15.21
2022-08-03T09:10:00,rvs,15.40
2022-08-03T09:11:00,rvs,15.18
2022-08-03T09:12:00,rvs,17.31
2022-08-03T09:13:00,rvs,18.32
2022-08-03T09:14:00,rvs,26.69
2022-08-03T09:15:00,rvs,18.31
2022-08-03T09:16:00,rvs,19.29
2022-08-03T09:17:00,rvs,19.05
2022-08-03T09:18:00,rvs,18.76
2022-08-03T09:19:00,rvs,19.21
2022-08-03T09:20:00,rvs,20.14
2022-08-03T09:21:00,rvs,20.63
2022-08-03T09:22:00,rvs,21.36
2022-08-03T09:23:00,rvs,21.44
2022-08-03T09:24:00,rvs,21.75
2022-08-03T09:25:00,rvs,21.88
2022-08-03T09:26:00,rvs,18.67
2022-08-03T09:27:00,rvs,18.49
2022-08-03T09:28:00,rvs,17.16
2022-08-03T09:29:00,rvs,17.49
2022-08-03T09:30:00,rvs,15.95
2022-08-03T09:31:00,rvs,15.93
2022-08-03T09:32:00,rvs,15.79
2022-08-03T09:33:00,rvs,15.88
2022-08-03T09:34:00,rvs,15.65
2022-08-03T09:35:00,rvs,11.87
2022-08-03T09:36:00,rvs,12.10
2022-08-03T09:37:00,rvs,12.22
2022-08-03T09:38:00,rvs,12.07
2022-08-03T09:39:00,rvs,11.92
2022-08-03T09:40:00,rvs,12.28
2022-08-03T09:41:00,rvs,14.75
2022-08-03T09:42:00,rvs,15.43
2022-08-03T09:43:00,rvs,17.75
2022-08-03T09:44:00,rvs,18.05
2022-08-03T09:45:00,rvs,18.85
2022-08-03T09:46:00,rvs,19.78
2022-08-03T09:47:00,rvs,19.76
2022-08-03T09:48:00,rvs,19.52
2022-08-03T09:49:00,rvs,26.00
2022-08-03T09:50:00,rvs,26.12
2022-08-03T09:51:00,rvs,26.08
2022-08-03T09:52:00,rvs,26.53
2022-08-03T09:53:00,rvs,26.18
2022-08-03T09:54:00,rvs,26.27
2022-08-03T09:55:00,rvs,26.93
2022-08-03T09:56:00,rvs,26.93
2022-08-03T09:57:00,rvs,25.54
2022-08-03T09:58:00,rvs,22.00
2022-08-03T09:59:00,rvs,25.06
2022-08-03T10:00:00,rvs,24.79
2022-08-03T10:01:00,rvs,24.64
2022-08-03T10:02:00,rvs,24.97
2022-08-03T10:03:00,rvs,23.14
2022-08-03T10:04:00,rvs,24.85
2022-08-03T10:05:00,rvs,25.21
2022-08-03T10:06:00,rvs,25.18
2022-08-03T10:07:00,rvs,24.86
2022-08-03T10:08:00,rvs,24.80
2022-08-03T10:09:00,rvs,24.04
2022-08-03T10:10:00,rvs,24.04
2022-08-03T10:11:00,rvs,23.55
2022-08-03T10:12:00,rvs,21.89
2022-08-03T10:13:00,rvs,21.98
2022-08-03T10:14:00,rvs,18.65
2022-08-03T10:15:00,rvs,18.63
2022-08-03T10:16:00,rvs,20.96
2022-08-03T10:17:00,rvs,21.79
2022-08-03T10:18:00,rvs,22.02
2022-08-03T10:19:00,rvs,21.87
2022-08-03T10:20:00,rvs,22.12
2022-08-03T10:21:00,rvs,22.03
2022-08-03T10:22:00,rvs,22.71
2022-08-03T10:23:00,rvs,22.67
2022-08-03T10:24:00,rvs,22.59
2022-08-03T10:25:00,rvs,21.76
2022-08-03T10:26:00,rvs,21.42
2022-08-03T10:27:00,rvs,21.74
2022-08-03T10:28:00,rvs,21.55
2022-08-03T10:29:00,rvs,21.76
2022-08-03T10:30:00,rvs,21.74
2022-08-03T10:31:00,rvs,21.88
2022-08-03T10:32:00,rvs,22.07
2022-08-03T10:33:00,rvs,20.96
2022-08-03T10:34:00,rvs,20.69
2022-08-03T10:35:00,rvs,19.07
2022-08-03T10:36:00,rvs,18.30
2022-08-03T10:37:00,rvs,18.22
2022-08-03T10:38:00,rvs,18.69
2022-08-03T10:39:00,rvs,18.65
2022-08-03T10:40:00,rvs,19.77
2022-08-03T10:41:00,rvs,20.44
2022-08-03T10:42:00,rvs,19.96
2022-08-03T10:43:00,rvs,19.68
2022-08-03T10:44:00,rvs,15.93
2022-08-03T10:45:00,rvs,16.11
2022-08-03T10:46:00,rvs,16.01
2022-08-03T10:47:00,rvs,19.81
2022-08-03T10:48:00,rvs,19.69
2022-08-03T10:49:00,rvs,19.35
2022-08-03T10:50:00,rvs,19.21
2022-08-03T10:51:00,rvs,15.21
2022-08-03T10:52:00,rvs,15.00
2022-08-03T10:53:00,rvs,14.98
2022-08-03T10:54:00,rvs,21.30
2022-08-03T10:55:00,rvs,21.94
2022-08-03T10:56:00,rvs,19.55
2022-08-03T10:57:00,rvs,18.97
2022-08-03T10:58:00,rvs,20.59
2022-08-03T10:59:00,rvs,20.74
2022-08-03T11:00:00,rvs,22.68
2022-08-03T11:01:00,rvs,24.73
2022-08-03T11:02:00,rvs,26.10
2022-08-03T11:03:00,rvs,26.55
2022-08-03T11:04:00,rvs,29.91
2022-08-03T11:05:00,rvs,28.10
2022-08-03T11:06:00,rvs,23.17
2022-08-03T11:07:00,rvs,23.36
2022-08-03T11:08:00,rvs,23.02
2022-08-03T11:09:00,rvs,22.23
2022-08-03T11:10:00,rvs,19.60
2022-08-03T11:11:00,rvs,19.84
2022-08-03T11:12:00,rvs,15.89
2022-08-03T11:13:00,rvs,29.17
2022-08-03T11:14:00,rvs,29.23
2022-08-03T11:15:00,rvs,29.72
2022-08-03T11:16:00,rvs,29.54
2022-08-03T11:17:00,rvs,29.62
2022-08-03T11:18:00,rvs,12.12
2022-08-03T11:19:00,rvs,11.49
2022-08-03T11:20:00,rvs,11.42
2022-08-03T11:21:00,rvs,11.62
2022-08-03T11:22:00,rvs,11.56
2022-08-03T11:23:00,rvs,11.45
2022-08-03T11:24:00,rvs,13.83
2022-08-03T11:25:00,rvs,13.88
2022-08-03T11:26:00,rvs,14.31
2022-08-03T11:27:00,rvs,15.14
2022-08-03T11:28:00,rvs,15.13
2022-08-03T11:29:00,rvs,14.61
2022-08-03T11:30:00,rvs,14.52
2022-08-03T11:31:00,rvs,14.37
2022-08-03T11:32:00,rvs,16.90
2022-08-03T11:33:00,rvs,20.40
2022-08-03T11:34:00,rvs,21.06
2022-08-03T11:35:00,rvs,24.49
2022-08-03T11:36:00,rvs,26.02
2022-08-03T11:37:00,rvs,25.72
2022-08-03T11:38:00,rvs,21.79
2022-08-03T11:39:00,rvs,21.64
2022-08-03T11:40:00,rvs,22.26
2022-08-03T11:41:00,rvs,24.64
2022-08-03T11:42:00,rvs,24.77
2022-08-03T11:43:00,rvs,25.68
2022-08-03T11:44:00,rvs,26.12
2022-08-03T11:45:00,rvs,25.55
2022-08-03T11:46:00,rvs,24.87
2022-08-03T11:47:00,rvs,25.28
2022-08-03T11:48:00,rvs,25.59
2022-08-03T11:49:00,rvs,24.19
2022-08-03T11:50:00,rvs,24.79
2022-08-03T11:51:00,rvs,24.92
2022-08-03T11:52:00,rvs,25.02
2022-08-03T11:53:00,rvs,23.58
2022-08-03T11:54:00,rvs,20.19
2022-08-03T11:55:00,rvs,20.60
2022-08-03T11:56:00,rvs,19.68
2022-08-03T11:57:00,rvs,19.72
2022-08-03T11:58:00,rvs,19.20
2022-08-03T11:59:00,rvs,19.11
2022-08-03T12:00:00,rvs,14.48
2022-08-03T12:01:00,rvs,14.45
2022-08-03T12:02:00,rvs,14.53
2022-08-03T12:03:00,rvs,14.47
2022-08-03T12:04:00,rvs,14.40
2022-08-03T12:05:00,rvs,14.49
2022-08-03T12:06:00,rvs,17.27
2022-08-03T12:07:00,rvs,18.03
2022-08-03T12:08:00,rvs,16.76
2022-08-03T12:09:00,rvs,21.36
2022-08-03T12:10:00,rvs,21.21
2022-08-03T12:11:00,rvs,17.94
2022-08-03T12:12:00,rvs,18.96
2022-08-03T12:13:00,rvs,19.26
2022-08-03T12:14:00,rvs,19.53
2022-08-03T12:15:00,rvs,20.02
2022-08-03T12:16:00,rvs,19.49
2022-08-03T12:17:00,rvs,19.46
2022-08-03T12:18:00,rvs,19.16
2022-08-03T12:19:00,rvs,15.95
2022-08-03T12:20:00,rvs,16.51
2022-08-03T12:21:00,rvs,12.00
2022-08-03T12:22:00,rvs,12.02
2022-08-03T12:23:00,rvs,11.23
2022-08-03T12:24:00,rvs,11.24
2022-08-03T12:25:00,rvs,11.28
2022-08-03T12:26:00,rvs,14.33
2022-08-03T12:27:00,rvs,14.69
2022-08-03T12:28:00,rvs,14.33
2022-08-03T12:29:00,rvs,15.31
2022-08-03T12:30:00,rvs,15.76
2022-08-03T12:31:00,rvs,19.20
2022-08-03T12:32:00,rvs,19.39
2022-08-03T12:33:00,rvs,34.08
2022-08-03T12:34:00,rvs,19.57
2022-08-03T12:35:00,rvs,19.65
2022-08-03T12:36:00,rvs,19.78
2022-08-03T12:37:00,rvs,21.54
2022-08-03T12:38:00,rvs,22.17
2022-08-03T12:39:00,rvs,21.72
2022-08-03T12:40:00,rvs,25.80
2022-08-03T12:41:00,rvs,33.55
2022-08-03T12:42:00,rvs,32.29
2022-08-03T12:43:00,rvs,34.78
2022-08-03T12:44:00,rvs,37.67
2022-08-03T12:45:00,rvs,36.60
2022-08-03T12:46:00,rvs,36.17
2022-08-03T12:47:00,rvs,38.72
2022-08-03T12:48:00,rvs,38.65
2022-08-03T12:49:00,rvs,39.16
2022-08-03T12:50:00,rvs,40.76
2022-08-03T12:51:00,rvs,40.56
2022-08-03T12:52:00,rvs,39.09
2022-08-03T12:53:00,rvs,36.35
2022-08-03T12:54:00,rvs,26.29
2022-08-03T12:55:00,rvs,40.43
2022-08-03T12:56:00,rvs,19.59
2022-08-03T12:57:00,rvs,17.08
2022-08-03T12:58:00,rvs,17.02
2022-08-03T12:59:00,rvs,18.38
2022-08-03T13:00:00,rvs,16.24
2022-08-03T13:01:00,rvs,15.83
2022-08-03T13:02:00,rvs,16.94
2022-08-03T13:03:00,rvs,19.02
2022-08-03T13:04:00,rvs,16.44
2022-08-03T13:05:00,rvs,19.08
2022-08-03T13:06:00,rvs,18.80
2022-08-03T13:07:00,rvs,20.41
2022-08-03T13:08:00,rvs,21.26
2022-08-03T13:09:00,rvs,20.00
2022-08-03T13:10:00,rvs,19.82
2022-08-03T13:11:00,rvs,15.08
2022-08-03T13:12:00,rvs,15.23
2022-08-03T13:13:00,rvs,15.09
2022-08-03T13:14:00,rvs,16.61
2022-08-03T13:15:00,rvs,15.15
2022-08-03T13:16:00,rvs,16.24
2022-08-03T13:17:00,rvs,19.22
2022-08-03T13:18:00,rvs,18.99